Aérodrome :
LOGIN :

S'inscrire | Disclaimer

   EN    FR    IT 

 










Légende :    VFR   VFR Marginal   IFR   IFR Intensif   IFR Très Intensif
Visi : 
Plafond : 
>= 8 km
>= 3000ft
5 à 8 km
1000 à 3000 ft
1500m à 5 km
500 à 1000 ft
800 à 1500m
200 à 500 ft
< 800m
< 200 ft
Symboles :   Orages  Brouillard  Fortes neiges  Fortes précipitations  Vent > 20 kt
SIGMETs :   Divers  Orages  Givrage  Turbulence  Onde Orograph.  Cendres Volcan.







- Altitude de l'aérodrome : 327 ft
- Code IATA : BHX
- Voir les cartes d'approche


EGBB - Birmingham

DERNIER METAR :
  • 211050Z 08005KT 020V180 CAVOK 19/09 Q1017

METARs EXPIRÉS :
  • 211020Z VRB05KT CAVOK 19/09 Q1017
  • 210950Z 05004KT 340V120 CAVOK 18/08 Q1017
  • 210920Z 07006KT 020V120 CAVOK 17/08 Q1018
  • 210850Z 02004KT 310V060 CAVOK 17/08 Q1018
  • 210820Z 09004KT 050V130 CAVOK 16/07 Q1018

TAF TAF EGBB
Valide du 21 à 06h jusqu'au 22 à 06h UTC


210455Z 2106/2206 15005KT 9999 FEW045
PROB30 2106/2107 8000
BECMG 2112/2114 06010KT
PROB40
TEMPO 2114/2120 4000 +SHRA TSGR
BECMG 2119/2122 36005KT
PROB30
TEMPO 2202/2206 8000 BKN004
ATIS : +44 121 780 0910
Pas de NOTAMs connus pour ce terrain.



MET'MAP, la Météo Aéronautique d'un coup d'oeil ! - Copyright ORBIFLY Décembre 2007 - Disclaimer

ORBIFLY MET'MAP TEAM :

Programmation & Développement : Alexandra Zaïnal
Conception & Développement : Baudouin d'Aumeries
Co-Programmation & Développement : Marc-Olivier Méhu
Soutien technique & logistique : Manuel Goepfert

Contact : metmap@orbifly.com




SOURCES & CREDITS :

   NOAA